Location: Casilda
(33.0440°S, 61.1680°W)
Time: 22:55:50
(UTC-03:00)

ISS - Pass Details

Date: 18 December 2025
Orbit: 414 x 424 km, 51.6° (Epoch: 13 January)

Event Time Altitude Azimuth Distance (km) Brightness Sun altitude
Rises 23:23:37 0° 213° (SSW) 2,380 1.3 -28.9°
Reaches altitude 10° 23:26:07 10° 195° (SSW) 1,511 0.0 -29.1°
Enters shadow 23:27:11 15° 180° (S) 1,226 -0.7 -29.2°
